User: anonymous   Login
Location: Unspecified
(0.0000°N, 0.0000°E)
Time: 11:54:20
(UTC+02:00)
Language:

Cosmos 1733 Rocket - Orbit

View from above orbital plane
View from above orbital plane
View from above satellite
View from above satellite

Ground track
Ground track

The orbit data is extracted from the following two-line orbital elements,

1 16612U 86018B   16121.53355505  .00000143  00000-0  14158-4 0  9992
2 16612  82.5151 323.5718 0019267  76.3701 306.5468 14.84073937530251
Epoch (UTC): 30 April 2016 12:48:19
Eccentricity: 0.0019267
inclination: 82.5151°
perigee height: 603 km
apogee height: 630 km
right ascension of ascending node: 323.5718°
argument of perigee: 76.3701°
revolutions per day: 14.84073937
mean anomaly at epoch: 306.5468°
orbit number at epoch: 53025

The dashed part of the orbit path shows where the satellite is in the earth's shadow,  

DLR